Location: Madrid
(40.4000°N, 3.6830°W)
Time: 13:53:10
(UTC+01:00)

ISS - Pass Details

Date: 12 December 2017
Orbit: 402 x 406 km, 51.6° (Epoch: 16 December)

Event Time Altitude Azimuth Distance (km) Brightness Sun altitude
Rises 18:52:45 0° 312° (NW) 2,331 0.4 -11.9°
Reaches altitude 10° 18:55:06 10° 327° (NNW) 1,468 -0.8 -12.3°
Maximum altitude 18:57:51 24° 24° (NNE) 899 -2.5 -12.8°
Enters shadow 18:58:38 22° 47° (NE) 958 -2.5 -12.9°
